sat.trackr.live / text

‹ back to catalog

STARLINK-33742

NORAD 63366 · 2025-063D

PAYLOAD ACTIVE UNKNOWN

§ Identity

Operator
Country
US
Launch date
2025-03-26
Launch site
AFWTR
Launch vehicle
Mass (kg)
RCS (m²)

Purposes: comms

External: N2YO · Heavens-Above · Gunter

§ Orbital elements

Epoch: 2026-09-20T07:47:59.898048Z

Period
93.85 min
Inclination
53.1569°
Eccentricity
0.0001227
Mean motion
15.34401206 rev/d
Perigee alt
461.9 km
Apogee alt
463.5 km
Semi-major
6,840.8 km
B*
4.0526e-4
RAAN
226.6554°
Arg perigee
90.2262°
Mean anomaly
269.8881°
Rev number
8,453

§ Raw data

STARLINK-337421 63366U 25063D   26263.32499882  .00013341  00000+0  40526-3 0  99952 63366  53.1569 226.6554 0001227  90.2262 269.8881 15.34401206 84536

JSON: /api/v1/satellites/63366 · /tle

For live sub-satellite position, see the globe view (requires WebGL).

§ Visibility from observer

Set your observer location to see the next 7 days of passes ≥ 10°. The values pass through the URL so the page stays shareable.

No JS? Fill the form by hand. The geolocation button needs JavaScript.